sat.trackr.live / text

‹ back to catalog

NINGXIA-1 2

NORAD 44780 · 2019-076B

PAYLOAD ACTIVE UNKNOWN

§ Identity

Operator
Country
PRC
Launch date
2019-11-13
Launch site
TAISC
Launch vehicle
Mass (kg)
RCS (m²)

External: N2YO · Heavens-Above · Gunter

§ Orbital elements

Epoch: 2026-09-13T04:04:28.457184Z

Period
102.70 min
Inclination
45.0081°
Eccentricity
0.0006329
Mean motion
14.02127051 rev/d
Perigee alt
881.8 km
Apogee alt
891.0 km
Semi-major
7,264.6 km
B*
-4.0353e-5
RAAN
147.0395°
Arg perigee
215.5206°
Mean anomaly
144.5208°
Rev number
35,020

§ Raw data

NINGXIA-1 21 44780U 19076B   26256.16977381 -.00000192  00000+0 -40353-4 0  99912 44780  45.0081 147.0395 0006329 215.5206 144.5208 14.02127051350200

JSON: /api/v1/satellites/44780 · /tle

For live sub-satellite position, see the globe view (requires WebGL).

§ Visibility from observer

Set your observer location to see the next 7 days of passes ≥ 10°. The values pass through the URL so the page stays shareable.

No JS? Fill the form by hand. The geolocation button needs JavaScript.

§ Radio — SatNOGS DB

ModeDescriptionDownlinkUplink
FM S-band telemetry 2.289 GHz

1 transmitter · refreshed weekly from db.satnogs.org